Simultaneous Nadir Overpasses (SNOs) Predictions

Prediction of SNOs between GOES-15 and METOP-B Satellite Orbit:

Table of predicted SNOs for the next 14.0 days since TLE Epoch: 8/24/2018
Index Date Time (GOES-15) GOES-15 Lat,Lon METOP-B Lat,Lon Distance(km) Time Diff (sec)
1 08/25/2018 06:14:59 -0.08,-134.75 0.48,-132.16 294.01 80
2 08/26/2018 18:36:28 0.12,-134.74 0.56,-136.72 225.68 80
3 08/27/2018 18:13:07 0.09,-134.69 -0.56,-131.72 337.85 80
4 08/29/2018 06:34:46 -0.13,-134.56 -0.52,-136.31 198.94 80
5 08/30/2018 06:11:25 -0.10,-134.51 0.59,-131.31 364.20 80
6 08/31/2018 18:32:55 0.15,-134.49 0.45,-135.87 156.62 80
7 09/01/2018 18:09:34 0.12,-134.44 -0.67,-130.87 406.13 80
8 09/03/2018 06:31:12 -0.16,-134.29 -0.41,-135.46 132.03 80
9 09/04/2018 06:07:52 -0.13,-134.23 0.71,-130.46 430.07 80
10 09/05/2018 18:29:21 0.18,-134.19 0.33,-135.01 92.60 80
11 09/06/2018 18:06:01 0.15,-134.13 -0.78,-130.02 469.21 80




NCC Satellite Simultaneous Nadir Overpasses (SNOs) Prediction Service
